Location: *
(33.8649°S, 62.1526°E)
Time: 13:05:18
(UTC+00:00)

MOZ.5/SAFIR/RUBIN 5/SL-8 - Pass Details

Date: 17 January 2021
Orbit: 678 x 704 km, 98.1° (Epoch: 02 March)

Event Time Altitude Azimuth Distance (km) Brightness Sun altitude
Rises 22:17:14 0° 173° (S) 3,104 8.1 -26.7°
Reaches altitude 10° 22:19:32 10° 176° (S) 2,175 7.1 -26.5°
Enters shadow 22:23:45 56° 227° (SW) 828 4.1 -25.9°
